Weather History for Boscobel, WI

Change the Weather History Date:

Wednesday, December 5, 2012

  Actual Average (KPDC) Record (KPDC)
Temperature  
Mean Temperature 26 °F -  
Max Temperature 37 °F 36 °F 66 °F (2001)
Min Temperature 15 °F 21 °F -9 °F (2005)
Degree Days  
Heating Degree Days 39    
Moisture  
Dew Point 17 °F    
Average Humidity 60    
Maximum Humidity 91    
Minimum Humidity 41    
Precipitation  
Precipitation 0.00 in - - ()
Sea Level Pressure  
Sea Level Pressure 30.35 in    
Wind  
Wind Speed 3 mph (East)    
Max Wind Speed 7 mph    
Max Gust Speed -    
Visibility 10 miles    
Events      
Averages and records for this station are not official NWS values.
T = Trace of Precipitation, MM = Missing Value Source: NWS Daily Summary

Daily Weather History Graph

Daily Weather History Graph

Search for Another Location

Airport:

Trip Planner

Search our weather history database for the weather conditions in past years. The results will help you decide how hot, cold, wet, or windy it might be!

Date:

Astronomy

Dec. 05, 2012 Rise Set
Actual Time 7:19 AM CST 4:27 PM CST
Civil Twilight 6:47 AM CST 4:59 PM CST
Nautical Twilight 6:11 AM CST 5:35 PM CST
Astronomical Twilight 5:37 AM CST 6:09 PM CST
Moon 11:25 PM CST (12/5) 11:35 AM CST (12/5)
Length of Visible Light 10h 12m
Length of Day
9h 08m
Waning Gibbous, 59% of the Moon is Illuminated
Dec 5
Waning Gibbous
Dec 6
Last Quarter
Dec 13
New
Dec 19
First Quarter
Dec 28
Full

Hourly Weather History & Observations

Time (CST) Temp. Windchill Dew Point Humidity Pressure Visibility Wind Dir Wind Speed Gust Speed Precip Events Conditions
12:53 AM 26.1 °F 20.5 °F 12.9 °F 58% 30.41 in 10.0 mi NNE 4.6 mph - N/A   Clear
1:53 AM 25.0 °F 19.3 °F 12.9 °F 60% 30.42 in 10.0 mi NNE 4.6 mph - N/A   Clear
2:53 AM 24.1 °F - 12.9 °F 62% 30.44 in 10.0 mi Calm Calm - N/A   Clear
3:53 AM 21.0 °F - 12.9 °F 71% 30.44 in 10.0 mi Calm Calm - N/A   Clear
4:53 AM 18.0 °F - 12.9 °F 81% 30.46 in 10.0 mi Calm Calm - N/A   Clear
5:53 AM 17.1 °F - 12.0 °F 81% 30.48 in 10.0 mi Calm Calm - N/A   Clear
6:53 AM 15.1 °F - 12.9 °F 91% 30.47 in 10.0 mi Calm Calm - N/A   Clear
8:53 AM 21.9 °F - 17.1 °F 82% 30.48 in 10.0 mi Calm Calm - N/A   Clear
9:53 AM 28.0 °F - 17.1 °F 63% 30.47 in 10.0 mi Calm Calm - N/A   Clear
10:53 AM 32.0 °F 26.4 °F 15.1 °F 50% 30.45 in - ESE 5.8 mph - N/A   Clear
11:53 AM 35.1 °F 31.0 °F 16.0 °F 46% 30.41 in 10.0 mi Variable 4.6 mph - N/A   Clear
12:53 PM 37.0 °F 32.4 °F 15.1 °F 41% 30.38 in 10.0 mi Variable 5.8 mph - N/A   Clear
1:53 PM 37.0 °F 34.5 °F 16.0 °F 42% 30.35 in 10.0 mi Variable 3.5 mph - N/A   Clear
2:53 PM 37.0 °F 31.6 °F 16.0 °F 42% 30.33 in 10.0 mi Variable 6.9 mph - N/A   Clear
3:53 PM 36.0 °F 32.1 °F 17.1 °F 46% 30.32 in 10.0 mi ESE 4.6 mph - N/A   Clear
4:53 PM 34.0 °F - 18.0 °F 52% 30.30 in 10.0 mi Calm Calm - N/A   Clear
5:53 PM 33.1 °F - 18.0 °F 54% 30.28 in 10.0 mi Calm Calm - N/A   Clear
6:53 PM 34.0 °F 31.0 °F 19.9 °F 56% 30.26 in 10.0 mi Variable 3.5 mph - N/A   Clear
7:53 PM 34.0 °F 31.0 °F 21.0 °F 59% 30.23 in 10.0 mi Variable 3.5 mph - N/A   Clear
8:53 PM 35.1 °F - 21.9 °F 59% 30.21 in 10.0 mi Calm Calm - N/A   Clear
9:53 PM 37.0 °F 31.6 °F 23.0 °F 57% 30.19 in 10.0 mi SSW 6.9 mph - N/A   Clear
10:53 PM 37.0 °F 33.3 °F 24.1 °F 59% 30.17 in 10.0 mi Variable 4.6 mph - N/A   Clear
11:53 PM 37.0 °F 34.5 °F 25.0 °F 62% 30.14 in 10.0 mi Variable 3.5 mph - N/A   Mostly Cloudy